Home > Weather > Philadelphia > Past weeks

Flag for USA Weather for the Past 2 Weeks in Philadelphia, Pennsylvania, USA

Now
62 °F

Partly sunny.


Feels Like: 62 °F
Forecast: 46 / 62 °F
Wind: 5 mph from Southeast

Location: Philadelphia International Airport

Current Time: Apr 30, 2016 at 3:46:05 PM

Latest Report: Apr 30, 2016 at 2:54 PM


Visibility: 10 mi

Pressure: 30.20 "Hg

Humidity: 46%

Dew Point: 41 °F

Location of PhiladelphiaLocation

Historic Weather in Philadelphia — Graph

°F

Philadelphia Temperature Yesterday

Maximum temperature yesterday: 53 °F (at 12:54 PM)
Minimum temperature yesterday: 45 °F (at 12:01 AM)
Average temperature yesterday: 49 °F

High & Low Weather Summary for the Past Weeks

 TemperatureHumidityPressure
High85 °F (Apr 26, 2:54 PM)90% (Apr 23, 4:04 AM)30.47 "Hg (Apr 23, 4:04 AM)
Low41 °F (Apr 16, 6:54 AM)13% (Apr 20, 1:54 PM)29.60 "Hg (Apr 26, 2:54 PM)
Average59 °F52%30.08 "Hg
* Reported Apr 15 1:54 PM — Apr 30 1:54 PM, Philadelphia, Weather by CustomWeather, © 2016

Note: Actual official high and low records may vary slightly from our data, if they occured in-between our weather recording intervals... More about our weather records

Advertising

Philadelphia Weather History for the Previous 24 Hours

Scroll right to see more
 ConditionsComfort  
Time TempWeatherWind HumidityBarometerVisibility
1:54 PM
Sat, Apr 30
63 °FPartly sunny.5 mph47%30.21 "Hg10 mi
12:54 PM60 °FPartly sunny.3 mph47%30.22 "Hg10 mi
11:54 AM59 °FPartly sunny.6 mph49%30.21 "Hg10 mi
10:54 AM56 °FBroken clouds.7 mph58%30.22 "Hg10 mi
9:54 AM53 °FPartly sunny.6 mph61%30.21 "Hg10 mi
8:54 AM51 °FPartly sunny.8 mph63%30.22 "Hg10 mi
7:54 AM50 °FOvercast.10 mph63%30.21 "Hg10 mi
6:54 AM49 °FOvercast.8 mph66%30.20 "Hg10 mi
5:54 AM49 °FOvercast.6 mph66%30.19 "Hg10 mi
4:54 AM48 °FMostly cloudy.7 mph74%30.16 "Hg10 mi
3:54 AM48 °FMostly cloudy.6 mph77%30.16 "Hg10 mi
2:54 AM47 °FMostly cloudy.9 mph80%30.14 "Hg10 mi
1:54 AM47 °FOvercast.9 mph80%30.16 "Hg10 mi
12:54 AM48 °FOvercast.7 mph74%30.16 "Hg10 mi
11:54 PM
Fri, Apr 29
49 °FOvercast.8 mph69%30.15 "Hg10 mi
10:54 PM49 °FOvercast.8 mph69%30.13 "Hg10 mi
9:54 PM49 °FOvercast.7 mph71%30.13 "Hg10 mi
8:54 PM49 °FOvercast.10 mph71%30.11 "Hg10 mi
7:54 PM50 °FMore clouds than sun.6 mph74%30.09 "Hg10 mi
6:54 PM50 °FMostly cloudy.10 mph77%30.08 "Hg10 mi
5:54 PM50 °FOvercast.12 mph77%30.07 "Hg8 mi
4:54 PM51 °FOvercast.8 mph71%30.08 "Hg10 mi
3:54 PM51 °FOvercast.8 mph69%30.08 "Hg10 mi
Weather by CustomWeather, © 2016

See weather overviewHow to use our weather pages